Location: Fort Wayne
(41.1310°N, 85.1290°W)
Time: 07:48:52
(UTC-04:00)

ISS - Visible Passes

Search period start: 19 September 2014 00:00
Search period end: 29 September 2014 00:00
Orbit: 414 x 417 km, 51.6° (Epoch: 19 September)

Date Brightness Start Highest point End Pass type
(mag) Time Alt. Az. Time Alt. Az. Time Alt. Az.
19 Sep -1.4 05:42:10 21° NNW 05:42:17 21° NNW 05:44:56 10° NNE visible
20 Sep -0.4 04:55:19 16° NNE 04:55:19 16° NNE 04:56:15 10° NE visible
20 Sep -0.7 06:29:00 10° NW 06:30:50 14° N 06:32:40 10° NNE visible
21 Sep -0.9 05:41:18 15° NNW 05:41:43 15° N 05:43:47 10° NNE visible
22 Sep -0.2 04:54:22 13° NNE 04:54:22 13° NNE 04:54:58 10° NNE visible
22 Sep -0.6 06:28:27 10° NNW 06:30:18 14° N 06:32:08 10° NE visible
23 Sep -0.7 05:40:18 13° NNW 05:41:05 14° N 05:42:51 10° NNE visible
24 Sep 0.0 04:53:20 11° NNE 04:53:20 11° NNE 04:53:43 10° NNE visible
24 Sep -0.8 06:27:13 10° NNW 06:29:33 17° NNE 06:31:53 10° ENE visible
25 Sep -0.7 05:39:16 13° NNW 05:40:19 15° N 05:42:20 10° NE visible
26 Sep 0.0 04:52:21 12° NNE 04:52:21 12° NNE 04:52:49 10° NE visible
26 Sep -1.4 06:25:38 10° NW 06:28:33 27° NNE 06:31:27 10° E visible
27 Sep -1.1 05:38:22 18° N 05:39:18 21° NNE 05:41:54 10° ENE visible
28 Sep 0.0 04:51:34 13° NE 04:51:34 13° NE 04:52:14 10° NE visible
28 Sep -2.7 06:24:27 14° NW 06:27:14 57° NNE 06:30:30 10° ESE visible
